Regional Weather Roundup
Issued by NWS Grand Forks, ND

Home | Current Version | Previous Version | Graphics & Text | Print | Product List | Glossary On
Versions: 1 2 3 4 5 6 7 8 9 10 11 12 13 14 15 16 17 18 19 20 21 22 23 24 25 26 27 28 29 30 31 32 33 34 35 36 37 38 39 40 41 42 43 44 45 46 47 48 49 50
000
ASUS43 KFGF 230831
RWRFGF
PRAIRIE TO PINES  WEATHER ROUNDUP
NATIONAL WEATHER SERVICE EASTERN NORTH DAKOTA/GRAND FORKS ND
200 AM CST SUN NOV 23 2014

 **SATELLITE DATA USED TO AUGMENT SKY COVER AT AUTOMATED STATIONS**
 *****  WEATHER ACROSS EASTERN NORTH DAKOTA  *****

CITY           SKY/WX    TMP DP  RH WIND       PRES   REMARKS
GRAND FORKS    CLOUDY    34  31  88 S16       29.36R WCI  24
GRAND FRKS AFB CLOUDY    32  32 100 SW12      29.35R WCI  23
GRAND FRKS NWS   N/A     32 N/A N/A S14         N/A  WCI  22
DEVILS LAKE    CLOUDY    34  25  69 CALM      29.29R
FARGO          CLOUDY    34  32  92 S7        29.38S FOG
WAHPETON ARPT  CLOUDY    32  32 100 S6        29.40R
$$

 ***** WEATHER ACROSS CENTRAL AND WESTERN NORTH DAKOTA  *****

CITY           SKY/WX    TMP DP  RH WIND       PRES   REMARKS
BISMARCK       LGT RAIN  37  35  92 SW6       29.41R
MINOT          FAIR      39  28  64 SW14G22   29.29R
JAMESTOWN      CLOUDY    34  31  88 W5        29.36R
MINOT AFB      PTCLDY    37  30  76 W15       29.28R
GARRISON         N/A     36  30  79 W12       29.34R
WILLISTON      CLOUDY    38  31  76 W20G26    29.34R
DICKINSON      MOCLDY    36  29  75 W22G28    29.39S
HETTINGER      CLOUDY    37  27  67 W20       29.47R
$$

 *****  OTHER AIRPORT OBSERVATIONS IN OUR AREA  *****

CITY           SKY/WX    TMP DP  RH WIND       PRES   REMARKS
WALHALLA         N/A     28  28 100 SE7       29.30S WCI  21
GRAFTON AIRPOR CLOUDY    32  32 100 S14G20    29.35R FOG     WCI  22
VALLEY CITY AR FAIR      32  32 100 SW9       29.37R WCI  24
CANDO          FAIR      32  28  86 SW7       29.29S
CAVALIER APRT  FAIR      32  30  93 S10       29.32R FOG     WCI  24
GWINNER        SUNNY     36  34  93 W14       29.40R
SHEYENNE NWR     N/A     31  29  92 W7        29.95S WCI  24
ROLLA          FAIR      27  27 100 S8        29.27S WCI  18
 ***** THE ABOVE OBSERVATIONS ARE NON NWS ARE NOT QUALITY
       CONTROLLED AND MAY MIS-REPORT RAIN FOR SNOW...
$$

  *****  WEATHER ACROSS NORTHERN MINNESOTA  *****

CITY           SKY/WX    TMP DP  RH WIND       PRES   REMARKS
FLAG ISLAND    CLOUDY    34  30  86 S17       29.37F WCI  23
WARROAD        CLOUDY    34  30  86 S5        29.38S
ROSEAU         CLOUDY    36  30  80 S10       29.36S
HALLOCK        CLOUDY    34  32  93 S13       29.34R FOG     WCI  25
THF RVR FALLS  CLOUDY    34  32  93 S9        29.37S
BAUDETTE       CLOUDY    33  30  88 S6        29.40S
WASKISH        CLOUDY    34  30  86 CALM      29.39F FOG
CROOKSTON      CLOUDY    34  32  93 S10       29.38R FOG
STEPHEN NDAWN    N/A     34  32  93 S12         N/A
GREENBUSH NDAW   N/A     34  32  93 S12         N/A
$$
  *****  WEATHER ACROSS CENTRAL AND WEST MINNESOTA  *****

CITY           SKY/WX    TMP DP  RH WIND       PRES   REMARKS
FOSSTON        CLOUDY    32  30  93 S9        29.39R FOG     WCI  24
BEMIDJI        LGT SNOW  32  32 100 SE7       29.38S VSB 1
PARK RAPIDS    FOG       33  33 100 SE7       29.37F VSB 1/2
ELBOW LAKE       N/A     33  32  97 S10       29.39R FOG     WCI  25
WADENA         FOG       34  34 100 SE5       29.37F VSB 1/4
DETROIT LAKES  CLOUDY    34  34 100 S6        29.39R FOG
MOORHEAD       CLOUDY    34  34 100 S7        29.40R FOG
FERGUS FALLS   CLOUDY    34  32  93 S7        29.41S FOG
MORRIS MN      CLOUDY    36  34  93 SW8       29.39S
STAPLES        FOG       34  34 100 SE3       29.39F VSB 1/4
$$
  *****  WEATHER ELSEWHERE ACROSS MINNESOTA  *****

CITY           SKY/WX    TMP DP  RH WIND       PRES   REMARKS
DULUTH         DRZL/FOG  34  32  92 E13       29.46F VSB 1/4 WCI  25
INTRNTL FALLS  CLOUDY    34  30  85 S6        29.42F
ELY            CLOUDY    34  32  93 SE9       29.44F FOG
CLOQUET        SNOW      34  34 100 SE6       29.44F VSB 1/4
WHEATON        CLOUDY    32  30  93 S7        29.41S
BRAINERD       FOG       34  34 100 S8        29.41F VSB 1/4
HIBBING        CLOUDY    33  31  92 SE6       29.43F FOG
ALEXANDRIA     CLOUDY    35  34  96 S9        29.39F FOG
SAINT CLOUD    FOG       39  38  96 S7        29.42F VSB 1/4
MINNEAPOLIS    CLOUDY    45  44  97 SE6       29.46F FOG
$$

  *****  WEATHER ACROSS SOUTH DAKOTA  *****

CITY           SKY/WX    TMP DP  RH WIND       PRES   REMARKS
SIOUX FALLS    CLOUDY    42  39  89 S8        29.41F
BROOKINGS      NOT AVBL
WATERTOWN      CLOUDY    35  31  85 SW7       29.40F
HURON          CLOUDY    35  31  85 E5        29.40F
SISSETON         N/A     40  32  73 SW10      29.38R
ABERDEEN       PTCLDY    35  32  88 W7        29.42S
MITCHELL       CLOUDY    39  33  79 SE3       29.40F
PIERRE         MOCLDY    39  36  89 NW15      29.45R
MOBRIDGE       LGT RAIN  40  38  93 NW8       29.43R
RAPID CITY     CLOUDY    42  22  44 NW24      29.53S
$$

  *****  SOME WEATHER IN NEARBY STATES *****

CITY           SKY/WX    TMP DP  RH WIND       PRES   REMARKS
GLASGOW MT     CLOUDY    37  25  61 NW38G45   29.45R
GREAT FALLS MT MOCLDY    32  20  61 W15       29.71R WCI  22
CHEYENNE WY    PTCLDY    32  22  66 NW23G43   29.64R WCI  19
SCOTTSBLUFF NE CLOUDY    40  28  62 NW16      29.63R
OMAHA NE       CLOUDY    53  52  96 SE10      29.52F
DES MOINES IA  CLOUDY    54  50  86 S12       29.60F
DAVENPORT IA   CLOUDY    52  47  83 S17       29.72F
CHICAGO IL     CLOUDY    50  46  86 S16       29.81F
EAU CLAIRE WI  FOG       40  39  97 S5        29.54F VSB 1/4
LA CROSSE WI   CLOUDY    52  48  86 S13G23    29.59F
$$

  *****  SOME NATIONAL WEATHER *****

CITY           SKY/WX    TMP DP  RH WIND       PRES   REMARKS
LA GUARDIA NY  CLOUDY    44  22  41 SW10      30.18S
RALEIGH NC     CLOUDY    38  27  64 CALM      30.29F
ATLANTA GA     RAIN      46  43  87 E14       30.13F FOG
NEW ORLEANS LA LGT RAIN  63  61  93 E10       29.81F FOG
OKLAHOMA CITY  CLOUDY    54  52  93 S9        29.57F
ALBUQUERQUE NM CLOUDY    50  17  27 NW9       29.81F
SALT LAKE CITY CLOUDY    39  31  72 NW17G23   29.97R
LOS ANGELES CA PTCLDY    60  56  86 VRB3      30.04F
BOISE ID       CLEAR     34  28  79 NW7       30.11R
SEATTLE WA     CLOUDY    47  42  83 S14G23    30.14R
$$

*** WEATHER ACROSS MANITOBA...SASKATCHEWAN AND ONTARIO ***
                ***ONTARIO***

CITY           SKY/WX    TMP DP  RH WIND       PRES   REMARKS
GERALDTON      CLOUDY    27  25  93 E6        29.67  WCI  20
THUNDER BAY    CLOUDY    37  36  93 S12G17    29.61F
SIOUX LOOKOUT  CLOUDY    30  28  93 E6        29.46F WCI  24
TORONTO        CLOUDY    43  41  93 S7        29.95S
BIG TROUT LK   CLOUDY     1  -2  85 E5        29.78R WCI  -8
PICKLE LAKE    NOT AVBL
DRYDEN         CLOUDY    32  30  93 E6        29.43
KENORA         MOCLDY    32  30  93 SE9       29.40S WCI  24
$$
                *** MANITOBA***

CITY           SKY/WX    TMP DP  RH WIND       PRES   REMARKS
BRANDON        FOG       23  23 100 NE15      29.28R VSB 1/4 WCI  10
DAUPHIN        NOT AVBL
ISLAND LAKE    MOCLDY     5   1  85 NE9       29.68F WCI  -9
PILOT MOUND      N/A     25  23  93 S6          N/A  WCI  18
THE PAS        FLURRIES   3   0  85 NE9       29.66R WCI -11
THOMPSON       PTCLDY   -13 -18  77 NE8       29.81S WCI -30
WINNIPEG       PTCLDY    32  28  86 S16       29.32S WCI  21
LYNN LAKE      MOCLDY   -18 -24  76 N3        29.82R
CHURCHILL      PTCLDY   -13 -18  77 NW12      29.86R WCI -33
GILLAM         CLEAR    -20 -27  69 NW6       29.85R WCI -36
$$
                ***SASKATCHEWAN***

CITY           SKY/WX    TMP DP  RH WIND       PRES   REMARKS
ESTEVAN        FLURRIES N/A N/A N/A W18G26      N/A
KINDERSLEY     LGT SNOW  21  18  86 NW12      29.58R WCI   9
LLOYDMINSTER   FLURRIES  16  12  86 N6        29.62R WCI   7
PRINCE ALBERT  FLURRIES  10   7  85 NE12      29.60R WCI  -4
REGINA         FLURRIES  30  30 100 N17G29    29.21R WCI  18
YORKTON        LGT SNOW  16  14  93 NE17      29.32R VSB 1   WCI   0
N. BATTLEFORD  FLURRIES  16  12  86 N14       29.62R WCI   1
LA RONGE       FLURRIES   1  -2  85 N10       29.75R WCI -14
SASKATOON      LGT SNOW  12   9  85 N17       29.59R DRFTSNOWWCI  -5
SWIFT CURRENT  LGT SNOW  18  16  93 NW29G37   29.49R WCI  -2
$$
NOTE: THESE ARE AUTOMATED STATIONS WITH LIMITED QUALITY CONTROL
      "FAIR" INDICATES FEW OR NO CLOUDS BELOW 12,000 FEET WITH NO
      SIGNIFICANT WEATHER AND/OR OBSTRUCTIONS TO VISIBILITY.
      SKY/WX - SKY CONDITION AND SIGNIFICANT WEATHER.
      TMP - AIR TEMPERATURE.    DP   - DEWPOINT TEMPERATURE.
      RH  - RELATIVE HUMIDITY.  PRES - PRESSURE.
      HX  - HEAT INDEX.         WCI  - WIND CHILL INDEX.
$


USA.gov is the U.S. government's official web portal to all federal, state and local government web resources and services.